Satellite: RS-39 Catalog number: 38051 Epoch time: 14268.47285690 Element set: 958 Inclination: 051.6190 deg RA of node: 071.7968 deg Eccentricity: 0.0010482 Arg of perigee: 275.7549 deg Mean anomaly: 179.8995 deg Mean motion: 15.84060084 rev/day Decay rate: 3.88688e-03 rev/day^2 Epoch rev: 14985 Checksum: 386
Satellite: E-STAR Catalog number: 38079 Epoch time: 14268.87304241 Element set: 989 Inclination: 069.4433 deg RA of node: 083.3343 deg Eccentricity: 0.0314863 Arg of perigee: 208.5054 deg Mean anomaly: 149.9041 deg Mean motion: 15.24289816 rev/day Decay rate: 1.62115e-03 rev/day^2 Epoch rev: 13872 Checksum: 323
Satellite: GOLIAT Catalog number: 38085 Epoch time: 14268.89854427 Element set: 394 Inclination: 069.4490 deg RA of node: 092.9794 deg Eccentricity: 0.0343884 Arg of perigee: 213.1573 deg Mean anomaly: 144.8084 deg Mean motion: 15.16649518 rev/day Decay rate: 1.31179e-03 rev/day^2 Epoch rev: 13844 Checksum: 355
Satellite: HORYU-2 Catalog number: 38340 Epoch time: 14267.42446287 Element set: 977 Inclination: 098.2700 deg RA of node: 226.3736 deg Eccentricity: 0.0011469 Arg of perigee: 215.9098 deg Mean anomaly: 144.1345 deg Mean motion: 14.72812208 rev/day Decay rate: 1.863e-05 rev/day^2 Epoch rev: 12640 Checksum: 307
Satellite: RS-40 Catalog number: 38735 Epoch time: 14268.93272073 Element set: 695 Inclination: 082.4753 deg RA of node: 224.7173 deg Eccentricity: 0.0017547 Arg of perigee: 037.1847 deg Mean anomaly: 323.0840 deg Mean motion: 12.42560592 rev/day Decay rate: -2.0e-07 rev/day^2 Epoch rev: 9809 Checksum: 309
Satellite: PROITERES Catalog number: 38756 Epoch time: 14268.85999084 Element set: 246 Inclination: 098.2255 deg RA of node: 358.7979 deg Eccentricity: 0.0013890 Arg of perigee: 066.2077 deg Mean anomaly: 294.1095 deg Mean motion: 14.75098251 rev/day Decay rate: -1.0e-07 rev/day^2 Epoch rev: 11002 Checksum: 330
Satellite: BEESAT-3 Catalog number: 39134 Epoch time: 14269.07199685 Element set: 721 Inclination: 064.8752 deg RA of node: 179.0100 deg Eccentricity: 0.0034849 Arg of perigee: 290.1970 deg Mean anomaly: 069.5903 deg Mean motion: 15.06349249 rev/day Decay rate: 1.0016e-04 rev/day^2 Epoch rev: 7885 Checksum: 325
Satellite: BEESAT-2 Catalog number: 39136 Epoch time: 14267.38739353 Element set: 701 Inclination: 064.8689 deg RA of node: 185.1568 deg Eccentricity: 0.0033983 Arg of perigee: 288.8101 deg Mean anomaly: 070.9334 deg Mean motion: 15.05569882 rev/day Decay rate: 6.701e-05 rev/day^2 Epoch rev: 7858 Checksum: 348
Satellite: LO-75 Catalog number: 39382 Epoch time: 14268.83678421 Element set: 428 Inclination: 040.4860 deg RA of node: 201.0251 deg Eccentricity: 0.0024889 Arg of perigee: 241.0444 deg Mean anomaly: 118.8361 deg Mean motion: 15.65194447 rev/day Decay rate: 2.55254e-03 rev/day^2 Epoch rev: 4769 Checksum: 324
Satellite: ZACUBE-1 Catalog number: 39417 Epoch time: 14267.26913917 Element set: 422 Inclination: 097.7627 deg RA of node: 334.4513 deg Eccentricity: 0.0061099 Arg of perigee: 282.2818 deg Mean anomaly: 077.1508 deg Mean motion: 14.78362075 rev/day Decay rate: 8.33e-06 rev/day^2 Epoch rev: 4533 Checksum: 318
Satellite: TRITON-1 Catalog number: 39427 Epoch time: 14267.12082178 Element set: 273 Inclination: 097.7543 deg RA of node: 328.1137 deg Eccentricity: 0.0117036 Arg of perigee: 296.0234 deg Mean anomaly: 062.8953 deg Mean motion: 14.65602413 rev/day Decay rate: 1.050e-05 rev/day^2 Epoch rev: 4488 Checksum: 295
Satellite: DELFIN3XT Catalog number: 39428 Epoch time: 14267.11294062 Element set: 277 Inclination: 097.7505 deg RA of node: 327.0368 deg Eccentricity: 0.0126682 Arg of perigee: 298.8212 deg Mean anomaly: 060.0314 deg Mean motion: 14.63640098 rev/day Decay rate: 1.823e-05 rev/day^2 Epoch rev: 4480 Checksum: 302
Satellite: GOMX-1 Catalog number: 39430 Epoch time: 14269.05850431 Element set: 853 Inclination: 097.7489 deg RA of node: 325.8426 deg Eccentricity: 0.0154807 Arg of perigee: 301.1985 deg Mean anomaly: 057.4619 deg Mean motion: 14.57041224 rev/day Decay rate: 1.179e-05 rev/day^2 Epoch rev: 4490 Checksum: 316
Satellite: MO-76 Catalog number: 39436 Epoch time: 14268.42761801 Element set: 351 Inclination: 097.7710 deg RA of node: 340.5870 deg Eccentricity: 0.0024025 Arg of perigee: 277.4638 deg Mean anomaly: 082.4257 deg Mean motion: 14.92179591 rev/day Decay rate: 1.4348e-04 rev/day^2 Epoch rev: 4581 Checksum: 327
Satellite: LO-74 Catalog number: 39440 Epoch time: 14267.16229691 Element set: 268 Inclination: 097.7609 deg RA of node: 331.8942 deg Eccentricity: 0.0083106 Arg of perigee: 287.0527 deg Mean anomaly: 072.1603 deg Mean motion: 14.73292787 rev/day Decay rate: 1.331e-05 rev/day^2 Epoch rev: 4515 Checksum: 321
Satellite: PUCPSAT-1 Catalog number: 39442 Epoch time: 14267.13384252 Element set: 267 Inclination: 097.7725 deg RA of node: 338.1469 deg Eccentricity: 0.0033205 Arg of perigee: 281.6851 deg Mean anomaly: 078.0591 deg Mean motion: 14.86477416 rev/day Decay rate: 2.635e-05 rev/day^2 Epoch rev: 4432 Checksum: 317
Satellite: SHINAISAT Catalog number: 39572 Epoch time: 14268.20970853 Element set: 314 Inclination: 065.0024 deg RA of node: 053.3028 deg Eccentricity: 0.0021206 Arg of perigee: 277.2528 deg Mean anomaly: 082.6621 deg Mean motion: 15.80930225 rev/day Decay rate: 1.13498e-03 rev/day^2 Epoch rev: 3285 Checksum: 281
Satellite: TEIKYOSAT Catalog number: 39576 Epoch time: 14268.19474001 Element set: 331 Inclination: 065.0001 deg RA of node: 049.1112 deg Eccentricity: 0.0021696 Arg of perigee: 283.2384 deg Mean anomaly: 076.6662 deg Mean motion: 15.91352085 rev/day Decay rate: 2.45123e-03 rev/day^2 Epoch rev: 3293 Checksum: 280
Satellite: CO-77 Catalog number: 39577 Epoch time: 14244.78324653 Element set: 379 Inclination: 064.9920 deg RA of node: 123.7668 deg Eccentricity: 0.0014904 Arg of perigee: 269.7208 deg Mean anomaly: 091.1897 deg Mean motion: 16.43552757 rev/day Decay rate: 1.0543803e-01 rev/day^2 Epoch rev: 2938 Checksum: 363
Satellite: SPROUT Catalog number: 39770 Epoch time: 14268.95872902 Element set: 143 Inclination: 097.8742 deg RA of node: 004.5776 deg Eccentricity: 0.0010229 Arg of perigee: 354.2225 deg Mean anomaly: 005.9381 deg Mean motion: 14.82791807 rev/day Decay rate: 1.299e-05 rev/day^2 Epoch rev: 1863 Checksum: 320
Satellite: POPSAT-HIP1 Catalog number: 40028 Epoch time: 14268.73961152 Element set: 300 Inclination: 097.9740 deg RA of node: 163.5670 deg Eccentricity: 0.0014101 Arg of perigee: 333.5068 deg Mean anomaly: 026.5455 deg Mean motion: 14.85324727 rev/day Decay rate: 2.110e-05 rev/day^2 Epoch rev: 1450 Checksum: 265
Satellite: EO-80 Catalog number: 40032 Epoch time: 14268.41780422 Element set: 291 Inclination: 097.9728 deg RA of node: 163.1646 deg Eccentricity: 0.0012516 Arg of perigee: 331.5868 deg Mean anomaly: 028.4677 deg Mean motion: 14.85091986 rev/day Decay rate: 2.051e-05 rev/day^2 Epoch rev: 1446 Checksum: 313
Satellite: VELOX-1 Catalog number: 40057 Epoch time: 14268.65410485 Element set: 287 Inclination: 098.2447 deg RA of node: 337.3359 deg Eccentricity: 0.0012040 Arg of perigee: 011.1126 deg Mean anomaly: 349.0340 deg Mean motion: 14.74198248 rev/day Decay rate: 2.035e-05 rev/day^2 Epoch rev: 1288 Checksum: 283
Satellite: DAURIA DX 1 Catalog number: 40071 Epoch time: 14268.65193511 Element set: 258 Inclination: 098.3943 deg RA of node: 323.8064 deg Eccentricity: 0.0009339 Arg of perigee: 017.7660 deg Mean anomaly: 342.3877 deg Mean motion: 14.79610646 rev/day Decay rate: 9.45e-06 rev/day^2 Epoch rev: 1166 Checksum: 312
Satellite: UKUBE-1 Catalog number: 40074 Epoch time: 14268.67166592 Element set: 260 Inclination: 098.3949 deg RA of node: 323.9516 deg Eccentricity: 0.0005871 Arg of perigee: 032.4154 deg Mean anomaly: 327.7418 deg Mean motion: 14.80578711 rev/day Decay rate: 2.025e-05 rev/day^2 Epoch rev: 1167 Checksum: 305
Satellite: CHASQUI-1 Catalog number: 40117 Epoch time: 14268.98872958 Element set: 138 Inclination: 051.6442 deg RA of node: 319.4926 deg Eccentricity: 0.0002929 Arg of perigee: 090.4686 deg Mean anomaly: 269.7158 deg Mean motion: 15.54222225 rev/day Decay rate: 6.4211e-04 rev/day^2 Epoch rev: 594 Checksum: 322
/EX
participants (1)
-
Ray Hoad